Location: Baia Mare
(47.6567°N, 23.5850°E)
Time: 21:33:30
(UTC+03:00)

ISS - Pass Details

Date: 31 May 2018
Orbit: 403 x 408 km, 51.6° (Epoch: 26 September)

Event Time Altitude Azimuth Distance (km) Brightness Sun altitude
Rises 22:24:39 0° 290° (WNW) 2,331 1.2 -9.6°
Reaches altitude 10° 22:26:47 10° 296° (WNW) 1,467 0.2 -9.9°
Maximum altitude 22:29:59 48° 13° (NNE) 537 -2.9 -10.2°
Drops below altitude 10° 22:33:10 10° 89° (E) 1,459 -1.4 -10.6°
Enters shadow 22:33:41 - 91° (E) 1,663 -1.1 -10.6°
